Terminal Aerodrome Forecast
Issued by NWS Charleston, WV

Current Version | Previous Version | Text Only | Print | Product List | Glossary Off
Versions: 1 2 3 4 5 6 7 8 9 10 11 12 13 14 15 16 17 18 19 20 21 22 23 24 25 26 27

000
FTUS41 KRLX 211100
TAFEKN
TAF
KEKN 211136Z 2112/2212 00000KT P6SM BKN018
     FM211600 14003KT P6SM BKN025
     FM212000 15004KT P6SM SCT250
     FM212300 00000KT P6SM SCT250
     FM221100 00000KT P6SM BKN080=

USA.gov is the U.S. government's official web portal to all federal, state and local government web resources and services.